When you browse on this site, cookies collect data to enhance your experience and personalize the content and advertising you see.
Visit our Privacy Policy to learn more. By continuing to use the site, you agree to this use of cookies and data.
  • In United Kingdom
  • List of Countries
  • For 7 days
  • Water Temperature
  • Satellite Maps
  • Weather Map
  • Weather Widgets
  • user-avatar
    Login

    Hourly Weather Mazyr

    Today, 18 July, Thursday

    Time Temperature Precipitation Wind Pressure Humidity
    00:00 +11°C° 0 mm 3 mps 740 mmHg 94%
    01:00 +11°C° 0 mm 3 mps 740 mmHg 95%
    02:00 +10°C° 0 mm 3 mps 740 mmHg 96%
    03:00 +10°C° 0 mm 3 mps 740 mmHg 96%
    04:00 +10°C° 0 mm 3 mps 740 mmHg 96%
    05:00 +10°C° 0 mm 3 mps 740 mmHg 96%
    06:00 +11°C° 0 mm 3 mps 740 mmHg 92%
    07:00 +13°C° 0 mm 4 mps 740 mmHg 88%
    08:00 +14°C° 0 mm 4 mps 741 mmHg 83%
    09:00 +15°C° 0.3 mm 4 mps 741 mmHg 81%
    10:00 +16°C° 0.3 mm 5 mps 741 mmHg 79%
    11:00 +17°C° 0.3 mm 5 mps 741 mmHg 77%
    12:00 +19°C° 1 mm 5 mps 741 mmHg 76%
    13:00 +19°C° 1 mm 5 mps 741 mmHg 75%
    14:00 +20°C° 1 mm 5 mps 741 mmHg 75%
    15:00 +20°C° 0.4 mm 5 mps 741 mmHg 75%
    16:00 +20°C° 0.4 mm 5 mps 741 mmHg 75%
    17:00 +20°C° 0.4 mm 5 mps 741 mmHg 75%
    18:00 +19°C° 0 mm 4 mps 742 mmHg 80%
    19:00 +17°C° 0 mm 4 mps 742 mmHg 85%
    20:00 +16°C° 0 mm 3 mps 742 mmHg 89%
    21:00 +16°C° 0 mm 3 mps 742 mmHg 91%
    22:00 +14°C° 0 mm 3 mps 743 mmHg 93%
    23:00 +14°C° 0 mm 3 mps 743 mmHg 94%

    Tomorrow, 19 July, Friday

    Time Temperature Precipitation Wind Pressure Humidity
    00:00 +14°C° 0 mm 3 mps 743 mmHg 95%
    01:00 +13°C° 0 mm 4 mps 743 mmHg 96%
    02:00 +13°C° 0 mm 4 mps 744 mmHg 97%
    03:00 +13°C° 0 mm 3 mps 744 mmHg 97%
    04:00 +13°C° 0 mm 3 mps 744 mmHg 97%
    05:00 +12°C° 0 mm 3 mps 744 mmHg 96%
    06:00 +14°C° 0 mm 3 mps 745 mmHg 90%
    07:00 +17°C° 0 mm 4 mps 745 mmHg 84%
    08:00 +18°C° 0 mm 4 mps 746 mmHg 78%
    09:00 +20°C° 0 mm 4 mps 746 mmHg 71%
    10:00 +21°C° 0 mm 4 mps 746 mmHg 64%
    11:00 +22°C° 0 mm 4 mps 746 mmHg 58%
    12:00 +23°C° 0.1 mm 4 mps 746 mmHg 56%
    13:00 +23°C° 0.1 mm 4 mps 745 mmHg 55%
    14:00 +25°C° 0.1 mm 4 mps 745 mmHg 54%
    15:00 +25°C° 0.1 mm 4 mps 745 mmHg 55%
    16:00 +25°C° 0.1 mm 4 mps 745 mmHg 57%
    17:00 +23°C° 0.1 mm 4 mps 745 mmHg 58%
    18:00 +22°C° 0 mm 3 mps 746 mmHg 66%
    19:00 +20°C° 0 mm 3 mps 746 mmHg 74%
    20:00 +18°C° 0 mm 2 mps 746 mmHg 82%
    21:00 +17°C° 0 mm 2 mps 746 mmHg 85%
    22:00 +16°C° 0 mm 2 mps 747 mmHg 88%
    23:00 +16°C° 0 mm 2 mps 747 mmHg 90%

    Day after tomorrow, 20 July, Saturday

    Time Temperature Precipitation Wind Pressure Humidity
    00:00 +15°C° 0 mm 2 mps 747 mmHg 91%
    01:00 +15°C° 0 mm 2 mps 747 mmHg 92%
    02:00 +14°C° 0 mm 2 mps 747 mmHg 93%
    03:00 +14°C° 0 mm 2 mps 747 mmHg 93%
    04:00 +14°C° 0 mm 1 mps 748 mmHg 93%
    05:00 +14°C° 0 mm 1 mps 748 mmHg 94%
    06:00 +16°C° 0 mm 1 mps 748 mmHg 86%
    07:00 +18°C° 0 mm 2 mps 748 mmHg 79%
    08:00 +20°C° 0 mm 2 mps 749 mmHg 71%
    09:00 +21°C° 0 mm 2 mps 749 mmHg 65%
    10:00 +23°C° 0 mm 2 mps 749 mmHg 60%
    11:00 +25°C° 0 mm 2 mps 749 mmHg 54%
    12:00 +25°C° 0 mm 2 mps 749 mmHg 51%
    13:00 +26°C° 0 mm 2 mps 749 mmHg 48%
    14:00 +27°C° 0 mm 2 mps 749 mmHg 45%
    15:00 +27°C° 0 mm 2 mps 749 mmHg 47%
    16:00 +26°C° 0 mm 2 mps 749 mmHg 49%
    17:00 +26°C° 0 mm 2 mps 749 mmHg 51%
    18:00 +24°C° 0 mm 2 mps 749 mmHg 58%
    19:00 +23°C° 0 mm 2 mps 749 mmHg 65%
    20:00 +21°C° 0 mm 1 mps 749 mmHg 72%
    21:00 +20°C° 0 mm 1 mps 749 mmHg 74%
    22:00 +19°C° 0 mm 1 mps 750 mmHg 76%
    23:00 +18°C° 0 mm 1 mps 750 mmHg 78%

    21 July, Sunday

    Time Temperature Precipitation Wind Pressure Humidity
    00:00 +16°C° 0 mm 1 mps 750 mmHg 80%
    01:00 +15°C° 0 mm 0 mps 750 mmHg 82%
    02:00 +14°C° 0 mm 0 mps 750 mmHg 84%
    03:00 +14°C° 0 mm 0 mps 750 mmHg 84%
    04:00 +14°C° 0 mm 0 mps 750 mmHg 84%
    05:00 +14°C° 0 mm 0 mps 750 mmHg 83%
    06:00 +17°C° 0 mm 0 mps 750 mmHg 77%
    07:00 +19°C° 0 mm 0 mps 750 mmHg 71%
    08:00 +21°C° 0 mm 0 mps 750 mmHg 65%
    09:00 +22°C° 0 mm 0 mps 750 mmHg 60%
    10:00 +24°C° 0 mm 0 mps 750 mmHg 55%
    11:00 +25°C° 0 mm 0 mps 750 mmHg 50%
    12:00 +26°C° 0 mm 0 mps 750 mmHg 48%
    13:00 +26°C° 0 mm 0 mps 750 mmHg 45%
    14:00 +27°C° 0 mm 0 mps 750 mmHg 43%
    15:00 +27°C° 0 mm 0 mps 749 mmHg 44%
    16:00 +28°C° 0 mm 1 mps 749 mmHg 45%
    17:00 +28°C° 0 mm 1 mps 749 mmHg 46%
    18:00 +26°C° 0 mm 1 mps 749 mmHg 52%
    19:00 +25°C° 0 mm 1 mps 749 mmHg 58%
    20:00 +23°C° 0 mm 1 mps 749 mmHg 64%
    21:00 +21°C° 0 mm 2 mps 748 mmHg 68%
    22:00 +20°C° 0 mm 2 mps 748 mmHg 72%
    23:00 +19°C° 0 mm 2 mps 748 mmHg 75%

    22 July, Monday

    Time Temperature Precipitation Wind Pressure Humidity
    00:00 +19°C° 0 mm 2 mps 748 mmHg 76%
    01:00 +18°C° 0 mm 2 mps 748 mmHg 77%
    02:00 +18°C° 0 mm 2 mps 748 mmHg 78%
    03:00 +18°C° 0.6 mm 2 mps 748 mmHg 84%
    04:00 +17°C° 0.6 mm 2 mps 747 mmHg 89%
    05:00 +18°C° 0.6 mm 1 mps 747 mmHg 94%
    06:00 +19°C° 0.6 mm 1 mps 747 mmHg 94%
    07:00 +19°C° 0.6 mm 1 mps 747 mmHg 95%
    08:00 +19°C° 0.6 mm 1 mps 747 mmHg 95%
    09:00 +20°C° 0.5 mm 2 mps 747 mmHg 90%
    10:00 +21°C° 0.5 mm 3 mps 747 mmHg 85%
    11:00 +22°C° 0.5 mm 3 mps 747 mmHg 80%
    12:00 +24°C° 2.1 mm 3 mps 747 mmHg 79%
    13:00 +24°C° 2.1 mm 3 mps 746 mmHg 77%
    14:00 +25°C° 2.1 mm 2 mps 746 mmHg 76%
    15:00 +25°C° 1.9 mm 2 mps 746 mmHg 77%
    16:00 +25°C° 1.9 mm 2 mps 746 mmHg 77%
    17:00 +24°C° 1.9 mm 2 mps 746 mmHg 78%
    18:00 +23°C° 0.7 mm 2 mps 746 mmHg 83%
    19:00 +21°C° 0.7 mm 2 mps 746 mmHg 87%
    20:00 +20°C° 0.7 mm 2 mps 746 mmHg 91%
    21:00 +19°C° 0.1 mm 2 mps 746 mmHg 93%
    22:00 +18°C° 0.1 mm 2 mps 746 mmHg 95%
    23:00 +17°C° 0.1 mm 2 mps 746 mmHg 96%

    23 July, Tuesday

    Time Temperature Precipitation Wind Pressure Humidity
    00:00 +17°C° 0 mm 2 mps 746 mmHg 96%
    01:00 +16°C° 0 mm 2 mps 746 mmHg 96%
    02:00 +16°C° 0 mm 2 mps 746 mmHg 96%
    03:00 +16°C° 0 mm 2 mps 746 mmHg 95%
    04:00 +16°C° 0 mm 2 mps 746 mmHg 95%
    05:00 +16°C° 0 mm 2 mps 746 mmHg 94%
    06:00 +17°C° 0 mm 2 mps 746 mmHg 91%
    07:00 +18°C° 0 mm 2 mps 746 mmHg 89%
    08:00 +19°C° 0 mm 3 mps 747 mmHg 86%
    09:00 +20°C° 0.3 mm 3 mps 747 mmHg 81%
    10:00 +22°C° 0.3 mm 3 mps 747 mmHg 75%
    11:00 +23°C° 0.3 mm 4 mps 747 mmHg 69%
    12:00 +25°C° 0.2 mm 4 mps 747 mmHg 64%
    13:00 +25°C° 0.2 mm 5 mps 747 mmHg 59%
    14:00 +26°C° 0.2 mm 5 mps 747 mmHg 54%
    15:00 +26°C° 0 mm 5 mps 747 mmHg 56%
    16:00 +26°C° 0 mm 5 mps 747 mmHg 59%
    17:00 +25°C° 0 mm 4 mps 746 mmHg 61%
    18:00 +23°C° 0.1 mm 4 mps 747 mmHg 67%
    19:00 +21°C° 0.1 mm 3 mps 747 mmHg 74%
    20:00 +19°C° 0.1 mm 3 mps 747 mmHg 81%
    21:00 +18°C° 0 mm 3 mps 747 mmHg 81%
    22:00 +18°C° 0 mm 3 mps 747 mmHg 81%
    23:00 +17°C° 0 mm 3 mps 747 mmHg 81%
    Show more